Weather History for KDMN - May, 2013

Change the Weather History Date:

Thursday, May 2, 2013

  Actual Average Record
Temperature  
Mean Temperature 58 °F 65 °F  
Max Temperature 70 °F 83 °F 91 °F (1961)
Min Temperature 48 °F 47 °F 24 °F (1967)
Degree Days  
Heating Degree Days 6    
Growing Degree Days 8 (Base 50)    
Moisture  
Dew Point 20 °F    
Average Humidity 25    
Maximum Humidity 41    
Minimum Humidity 10    
Precipitation  
Precipitation 0.00 in 0.03 in 0.13 in (1992)
Month to date precipitation 0.06  
Year to date precipitation 2.04  
Sea Level Pressure  
Sea Level Pressure 30.19 in    
Wind  
Wind Speed 22 mph (ENE)    
Max Wind Speed 36 mph    
Max Gust Speed 45 mph    
Visibility 6 miles    
Events      
T = Trace of Precipitation, MM = Missing Value Source: NWS Daily Summary

Daily Weather History Graph

Daily Weather History Graph

Search for Another Location

Airport or City:

Trip Planner

Search our weather history database for the weather conditions in past years. The results will help you decide how hot, cold, wet, or windy it might be!

Date:

Astronomy

May. 02, 2013 Rise Set
Actual Time 6:23 AM MDT 7:52 PM MDT
Civil Twilight 5:57 AM MDT 8:18 PM MDT
Nautical Twilight 5:25 AM MDT 8:50 PM MDT
Astronomical Twilight 4:53 AM MDT 9:23 PM MDT
Moon 1:47 AM MDT (5/2) 1:09 PM MDT (5/2)
Length of Visible Light 14h 21m
Length of Day
13h 29m
Waning Gibbous, 47% of the Moon is Illuminated
May 2
Waning Gibbous
May 9
New
May 17
First Quarter
May 24
Full
May 31
Last Quarter

Hourly Weather History & Observations

Time (MDT) Temp. Dew Point Humidity Pressure Visibility Wind Dir Wind Speed Gust Speed Precip Events Conditions
12:53 AM 61.0 °F 10.0 °F 13% 29.87 in 10.0 mi WNW 9.2 mph - N/A   Clear
1:53 AM 59.0 °F 10.0 °F 14% 29.87 in 10.0 mi WNW 6.9 mph - N/A   Clear
2:53 AM 62.1 °F 28.9 °F 29% 29.88 in 6.0 mi NE 28.8 mph 36.8 mph N/A   Haze
3:14 AM 57.2 °F 30.2 °F 36% 30.11 in 2.0 mi NE 32.2 mph 42.6 mph N/A   Haze
3:19 AM 57.2 °F 30.2 °F 36% 30.11 in 1.5 mi NE 35.7 mph 43.7 mph N/A   Haze
3:53 AM 55.9 °F 28.9 °F 36% 29.95 in 3.0 mi NE 26.5 mph 43.7 mph N/A   Haze
4:09 AM 55.4 °F 28.4 °F 36% 30.16 in 3.0 mi NE 31.1 mph 44.9 mph N/A   Haze
4:38 AM 53.6 °F 28.4 °F 38% 30.20 in 6.0 mi NE 26.5 mph 39.1 mph N/A   Haze
4:53 AM 53.1 °F 28.0 °F 38% 30.03 in 6.0 mi NE 25.3 mph 34.5 mph N/A   Haze
5:53 AM 51.1 °F 27.0 °F 39% 30.07 in 9.0 mi NE 21.9 mph 34.5 mph N/A   Clear
6:53 AM 48.9 °F 26.1 °F 41% 30.13 in 8.0 mi ENE 24.2 mph 33.4 mph N/A   Clear
7:53 AM 50.0 °F 24.1 °F 36% 30.16 in 7.0 mi ENE 24.2 mph 31.1 mph N/A   Clear
8:20 AM 51.8 °F 24.8 °F 35% 30.34 in 3.0 mi ENE 28.8 mph 35.7 mph N/A   Haze
8:53 AM 53.1 °F 23.0 °F 31% 30.19 in 4.0 mi ENE 28.8 mph 38.0 mph N/A   Haze
9:17 AM 53.6 °F 21.2 °F 28% 30.36 in 2.5 mi ENE 28.8 mph 38.0 mph N/A   Haze
9:33 AM 55.4 °F 21.2 °F 26% 30.37 in 1.8 mi NE 32.2 mph 42.6 mph N/A   Haze
9:44 AM 55.4 °F 21.2 °F 26% 30.37 in 2.0 mi NE 31.1 mph 41.4 mph N/A   Haze
9:53 AM 55.0 °F 21.0 °F 27% 30.22 in 1.8 mi NE 28.8 mph 40.3 mph N/A   Haze
10:02 AM 57.2 °F 21.2 °F 25% 30.38 in 2.5 mi NE 33.4 mph 42.6 mph N/A   Haze
10:53 AM 59.0 °F 19.9 °F 22% 30.24 in 2.5 mi ENE 27.6 mph 38.0 mph N/A   Haze
11:00 AM 59.0 °F 19.4 °F 22% 30.39 in 3.0 mi NE 28.8 mph 38.0 mph N/A   Haze
11:44 AM 60.8 °F 17.6 °F 19% 30.39 in 4.0 mi ENE 27.6 mph 36.8 mph N/A   Haze
11:53 AM 62.1 °F 17.1 °F 18% 30.24 in 4.0 mi NE 26.5 mph 42.6 mph N/A   Haze
12:53 PM 64.0 °F 16.0 °F 16% 30.21 in 7.0 mi ENE 21.9 mph 38.0 mph N/A   Clear
1:53 PM 66.0 °F 12.9 °F 13% 30.19 in 9.0 mi ENE 21.9 mph 35.7 mph N/A   Clear
2:53 PM 68.0 °F 10.9 °F 11% 30.17 in 10.0 mi ENE 24.2 mph 32.2 mph N/A   Clear
3:53 PM 68.0 °F 10.0 °F 11% 30.16 in 10.0 mi NE 19.6 mph 29.9 mph N/A   Clear
4:53 PM 69.1 °F 10.9 °F 11% 30.16 in 10.0 mi ENE 21.9 mph 26.5 mph N/A   Clear
5:53 PM 68.0 °F 9.0 °F 10% 30.15 in 10.0 mi ENE 18.4 mph 32.2 mph N/A   Clear
6:53 PM 66.9 °F 10.9 °F 11% 30.17 in 10.0 mi East 18.4 mph - N/A   Partly Cloudy
7:53 PM 61.0 °F 19.0 °F 20% 30.21 in 7.0 mi East 11.5 mph - N/A   Overcast
8:53 PM 57.0 °F 19.0 °F 23% 30.25 in 9.0 mi ESE 12.7 mph - N/A   Clear
9:53 PM 54.0 °F 19.0 °F 25% 30.28 in 10.0 mi ESE 12.7 mph 20.7 mph N/A   Partly Cloudy
10:53 PM 52.0 °F 19.0 °F 27% 30.29 in 10.0 mi SE 12.7 mph 19.6 mph N/A   Clear
11:53 PM 50.0 °F 18.0 °F 28% 30.29 in 10.0 mi SE 12.7 mph 20.7 mph N/A   Clear